OBJECT D

Satellite information

Favourite Embed

Satellite Type and Status

UNKNOWNIN ORBIT

Key statistics

Satellite OBJECT D at a glance.

Uptime

1624

Days in orbit

Revolutions

≈ 15.6

Per day

Orbit

SSO

Sun Synchronous Orbit

Inclination

97.3

Latest

Satellite identification and parameters

Extended collection of information and parameters for OBJECT D.

Object identification

Identified? True

Debris? False

Object name: OBJECT D

International designator: 2021-061D

Object number (NORAD): 49006

Object ID (CCSDS): 49006

Country: PEOPLES REPUBLIC OF CHINA (PRC)

Current information (Y/N): Y

RCS size: MEDIUM

Orbital parameters

Period: 92.34 minutes

Inclination: 97.3192 deg

SMA: 6767.384 km

Apoapsis: 392.309 km

Periapsis: 386.188 km

RAAN: 54.6534 deg

Eccentricy: 0.00045223

Argument of periapsis: 55.7499 deg

Mean anomaly: 304.4186 deg

Mean motion: 15.59450339 rev/day

Mean motion (dot): 0.0008791 rev/day2

B* drag term: 0.0011021261 1/REarth

Two-line elements (TLE)

Creation date: Dec. 12, 2025, 10:14 a.m.

Reference frame: TEME

Reference center: EARTH

Epoch: Dec. 12, 2025, 7:31 a.m. UTC

TLE line 0: 0 OBJECT D

TLE line 1: 1 49006U 21061D 25346.31336882 .00087910 00000-0 11021-2 0 9995

TLE line 2: 2 49006 97.3192 54.6534 0004522 55.7499 304.4186 15.59450339246856

Live tracking on map

Real-time ground track for satellite OBJECT D.

In-orbit conjunctions

There are no conjunctions computed for OBJECT D, at the moment. Check back to stay up to date, as we update our databases every day.

Go to all conjunctions

Associated space launch

Jilin-1 satellites are a series of Chinese commercial remote sensing satellite for high definition video within the Jilin-1 constellation designed and owned by the Chang Guang Satellite Technology Corporation.

OBJECT D was lifted into orbit during the mission ‘Long March 2D | Jilin-1 Wideband-01B & High Resolution 03D’, on board a Long March 2D space rocket.

The launch took place on July 3, 2021, 2:51 a.m. from Launch Complex 9.

For more information about the launch, click the button.

Launch to space Long March 2D | Jilin-1 Wideband-01B & High Resolution 03D
Long March 2D | Jilin-1 Wideband-01B & High Resolution 03D

Agency: N/A

Status: Launch Successful

Launch date: July 3, 2021, 2:51 a.m. UTC

Rocket: Long March 2D

Launch pad: Launch Complex 9

Location: Taiyuan Satellite Launch Center, People's Republic of China

...

Latest news about this satellite

News about space launch
China Launches Five Satellites on a Chang Zheng 2D

At 02:51 UTC, or 10:51 AM Beijing time on Saturday, July 3, the China Aerospace Science and Technology Corporation (CASC) successfully launched a Chang Zheng 2D rocket from LC-9 at the Taiyuan Satellite Launch Center, carrying five satellites into Sun Syn...

News about space launch
China launches five Earth observation satellites on Long March 2D rocket

China successfully launched five small remote sensing satellites on top of a Long March 2D rocket Saturday into an orbit more than 330 miles above Earth.


Newsletter sign-up

Weekly statistics, charts and insights to help you stay on top of the space industry.